RH
89 83 76 72 73 73 71 71 69 67 68 74 80 78 76 75 70 65 61 57 54 51 51 52 51 49 42 34 40 62 84 93 95 93 90 87 88 91 90 92 97 101 104 102 98 103 107 100 93 86 70 56 49 44 41 43 48 47 46 48 49 48 43 37 34 34 33 32 35 44 53 60 67 72 72 72 73 71 64 59 59 56 53 54 54
91 84 80 78 76 73 68 65 67 68 70 78 85 83 83 83 78 73 70 65 61 59 58 59 58 55 50 40 34 49 75 95 104 104 102 102 99 98 99 101 102 100 101 105 106 104 108 107 100 95 85 69 53 44 45 48 51 49 46 48 50 50 45 39 36 36 37 36 36 38 43 49 59 68 70 69 70 68 62 57 57 56 55 56 56
94 85 79 79 79 80 78 75 74 76 78 82 88 91 92 90 83 77 76 73 70 68 67 67 66 62 56 46 37 42 60 79 96 104 103 103 104 105 106 105 103 101 100 103 108 106 104 107 105 100 92 81 61 48 51 54 54 52 48 48 49 49 46 42 40 41 42 43 42 42 43 47 53 63 68 68 70 69 63 57 54 54 55 57 57
90 85 79 79 81 84 87 88 84 84 86 89 92 95 97 93 87 84 84 84 83 80 79 77 74 67 58 49 43 45 53 62 74 87 94 96 98 101 104 104 101 100 100 101 103 103 102 105 109 105 100 93 74 57 58 60 60 57 51 48 48 48 47 46 46 46 47 50 50 49 51 54 56 63 69 72 74 73 67 60 53 51 54 56 57
80 81 81 83 90 95 96 95 93 92 95 97 99 100 99 93 89 90 91 94 95 91 87 83 76 67 58 50 47 50 54 56 59 69 85 93 94 96 101 103 102 100 101 100 100 101 103 106 111 110 105 101 90 74 69 68 67 63 55 49 48 48 49 50 51 50 51 56 57 56 59 65 66 66 70 79 84 84 77 70 58 49 52 55 56
78 81 81 81 89 98 99 98 97 96 96 97 98 101 101 96 92 93 95 98 100 93 82 75 70 64 57 52 51 53 56 56 56 64 83 96 98 98 100 102 100 99 102 102 100 100 101 103 109 113 108 103 98 91 86 78 74 69 61 52 49 51 54 55 55 53 51 55 62 61 60 68 74 72 73 83 93 95 90 83 67 50 50 54 54
80 83 80 76 79 85 89 90 91 88 85 84 84 89 93 95 95 96 94 92 86 76 65 61 63 62 58 56 55 56 56 58 64 73 83 95 102 104 102 101 95 89 95 103 104 101 99 102 107 111 110 106 100 98 99 92 82 76 67 58 53 55 59 60 59 55 51 51 56 60 58 62 74 78 75 77 86 96 98 88 70 52 50 52 54
87 83 77 74 74 75 76 75 72 67 65 65 67 69 72 73 74 73 70 66 60 55 53 54 59 60 59 60 62 62 58 58 72 85 88 88 96 104 104 102 97 88 86 95 104 103 100 100 103 104 106 108 104 100 103 102 93 85 74 63 60 61 64 66 63 58 55 52 51 57 59 58 70 83 81 73 76 91 96 81 64 55 52 52 53
88 80 77 73 69 67 68 62 54 50 48 47 49 50 50 49 48 46 44 44 45 47 51 54 58 61 62 65 71 73 65 59 65 81 93 92 89 92 98 102 102 98 90 91 101 107 105 100 100 101 102 107 107 102 101 103 101 94 83 71 66 68 69 69 68 63 58 55 53 56 60 60 68 84 89 79 72 79 81 68 59 58 55 53 54
90 81 75 68 61 55 53 51 46 43 41 39 38 38 38 37 36 35 35 38 41 47 52 55 59 62 64 71 81 82 73 64 60 65 79 89 89 86 88 93 97 101 100 100 103 106 105 102 102 103 103 105 106 103 100 101 102 100 93 83 74 73 75 75 73 69 62 56 54 56 61 63 69 82 91 88 76 72 70 62 61 62 59 57 56
92 81 69 59 53 46 43 42 40 39 37 35 33 32 32 32 32 33 35 38 43 49 54 57 61 65 67 71 83 85 74 66 62 60 64 71 79 82 83 86 91 96 98 100 103 105 103 97 93 93 98 106 105 100 100 100 101 101 99 93 86 84 85 86 80 74 69 63 57 57 62 65 71 81 86 86 79 72 69 62 65 68 63 60 59
86 71 59 51 46 42 41 38 36 35 32 30 32 35 37 37 38 39 41 43 47 51 53 56 59 66 71 71 79 87 81 73 66 60 61 62 66 71 74 79 84 92 97 96 94 99 105 100 90 81 82 95 102 101 100 100 100 100 101 98 96 97 98 97 90 83 78 72 65 61 62 64 72 79 79 78 72 67 64 60 67 72 68 64 60
76 60 50 45 42 39 37 34 33 31 30 36 42 44 43 42 42 42 44 45 47 49 51 53 57 63 71 72 77 86 90 89 78 65 62 62 63 66 67 69 73 81 94 99 90 84 93 100 98 89 79 80 91 99 101 102 103 101 100 101 101 101 102 103 100 96 90 81 74 67 62 62 67 73 74 72 70 67 61 59 68 72 75 74 64
60 50 44 41 37 34 32 31 31 31 38 49 51 47 42 40 40 39 40 41 41 44 46 52 58 63 69 73 76 80 88 98 93 76 68 63 59 60 60 58 59 64 77 94 96 87 84 88 92 93 90 85 86 95 101 103 105 103 100 100 101 101 100 102 103 103 99 91 83 76 70 67 66 67 67 70 77 80 70 60 62 69 85 90 79
47 42 39 36 33 32 31 31 32 37 49 56 51 47 45 42 40 38 38 38 38 39 41 47 57 66 73 76 79 80 83 98 105 91 78 71 63 57 54 49 48 49 55 72 91 100 96 90 91 91 91 92 93 96 101 105 106 103 101 100 100 101 100 100 100 102 102 98 93 89 84 75 67 66 68 71 79 90 86 67 56 66 90 102 96
39 37 34 32 32 31 31 33 37 47 58 59 53 50 47 45 43 41 39 38 38 37 38 41 50 64 78 84 86 86 82 90 105 102 87 80 74 65 58 52 46 42 42 49 67 93 106 101 97 96 90 87 87 92 101 106 105 101 100 101 100 101 101 101 100 100 101 100 99 98 94 83 70 64 68 75 76 85 93 76 58 64 87 102 103
35 34 33 32 32 32 34 39 44 53 64 64 58 53 50 48 47 45 43 41 40 38 37 38 42 53 74 89 94 93 88 83 92 99 91 86 83 76 68 62 55 47 41 38 41 65 95 105 101 100 99 91 85 90 101 105 102 101 101 100 101 100 100 100 99 100 100 100 100 100 101 96 82 67 67 77 75 74 80 75 64 67 87 102 103
34 34 34 34 34 35 39 45 50 59 69 68 61 57 54 52 52 50 49 46 44 43 40 39 39 41 56 79 94 97 94 86 85 89 88 87 86 84 79 73 70 64 54 44 36 39 64 93 104 101 100 100 94 92 99 103 98 100 102 100 100 101 100 101 100 100 100 100 100 100 101 102 96 83 76 79 75 67 66 69 70 70 84 101 101
35 35 36 36 38 41 47 54 61 66 72 70 64 61 59 55 55 55 52 50 48 47 45 43 41 39 41 55 76 92 96 93 89 86 86 88 87 85 83 79 76 75 68 59 50 39 41 63 91 103 102 100 97 90 90 95 94 96 102 102 101 100 100 101 101 100 100 100 101 101 100 100 101 97 89 86 79 70 65 68 74 70 75 93 100
37 37 38 41 44 51 60 65 69 72 73 71 66 66 64 57 55 54 53 52 50 49 48 47 45 43 41 41 51 68 83 93 96 93 89 88 88 87 84 79 76 73 71 68 63 54 44 43 60 88 104 104 100 92 85 87 89 91 97 102 102 101 101 101 100 100 100 101 100 100 100 99 101 100 98 98 90 76 66 67 74 74 77 92 101
40 41 45 51 56 64 70 71 70 71 72 71 69 69 69 64 59 55 52 49 49 49 48 49 48 46 44 41 41 45 55 71 84 92 95 93 90 89 87 83 80 76 73 70 67 64 59 49 43 57 84 103 107 101 92 88 87 87 93 101 100 99 101 100 100 101 100 102 102 99 100 100 100 100 101 103 98 84 70 66 70 72 81 95 101
44 49 59 70 76 79 79 75 72 71 71 71 71 70 69 67 63 59 53 48 47 47 46 46 47 48 47 45 43 41 41 47 55 66 83 95 96 92 89 85 85 85 81 75 70 67 65 62 52 44 53 76 94 101 101 97 93 91 95 101 100 100 102 100 102 105 103 104 105 102 100 99 100 100 101 102 101 95 79 66 65 66 79 98 101
51 59 74 87 92 90 85 79 75 73 73 74 75 74 71 67 62 58 53 49 46 45 45 44 44 46 47 47 46 44 41 41 42 45 55 74 90 98 98 91 87 88 88 85 80 73 68 66 63 54 44 49 64 84 99 101 99 98 99 101 102 97 91 90 94 99 103 104 103 105 103 100 101 100 100 101 100 101 87 67 62 63 73 93 101
60 66 77 87 91 89 85 82 80 77 75 75 75 74 72 70 65 60 55 50 47 45 45 45 45 45 45 46 46 45 43 41 41 41 40 47 63 86 102 100 92 90 88 89 87 82 74 68 64 60 53 45 45 59 83 98 101 98 98 101 98 84 72 79 85 81 92 102 99 103 105 100 102 100 99 101 100 102 96 77 68 67 68 81 99
67 69 72 75 75 73 71 74 79 80 77 73 70 66 65 65 63 59 55 52 49 48 48 48 49 49 47 46 45 45 45 42 41 41 40 39 41 58 84 95 93 93 91 88 88 87 81 72 62 56 56 51 42 42 57 85 100 92 92 100 98 86 79 87 89 76 85 102 101 102 103 99 101 101 99 102 100 100 103 93 77 69 67 76 98
71 71 71 70 67 65 64 68 72 73 71 67 64 60 57 56 55 53 53 53 52 52 53 54 54 53 51 49 46 44 43 42 42 41 39 40 38 40 55 73 84 91 94 93 91 91 87 78 65 57 56 52 46 41 38 61 92 96 94 100 100 97 97 99 96 88 91 99 101 101 101 100 100 101 100 101 101 98 105 106 84 70 72 75 93
67 69 71 71 71 72 72 74 74 71 67 62 59 56 54 52 52 52 53 54 54 54 55 57 58 57 54 52 50 46 42 41 41 42 40 38 39 37 37 49 65 78 90 96 96 97 95 88 74 62 57 51 47 45 36 40 71 98 102 101 102 101 101 102 99 100 98 88 90 99 100 100 100 100 101 100 101 98 103 111 89 74 77 72 83
61 65 68 71 74 77 79 80 78 73 66 61 58 56 54 53 52 53 54 55 56 56 57 58 58 57 56 54 53 50 45 42 40 40 40 38 37 38 36 36 44 60 79 93 99 102 98 92 84 68 56 52 47 44 40 33 48 87 103 100 104 102 100 101 95 98 97 83 87 99 100 101 101 102 103 99 102 101 104 112 95 80 81 72 78
65 68 68 69 72 74 74 74 72 69 65 62 60 59 58 57 56 57 58 59 61 62 62 62 59 57 56 55 54 52 48 45 42 40 40 39 37 37 38 36 35 42 57 77 97 106 99 89 86 75 56 51 48 41 41 34 36 73 103 101 100 102 100 97 93 98 96 86 94 102 100 105 106 104 105 102 103 104 107 114 101 87 87 76 75
68 71 71 69 69 68 68 67 66 65 64 62 60 59 58 58 59 62 63 65 66 65 63 62 60 57 55 54 51 51 50 46 43 41 39 39 38 36 36 37 36 39 43 54 78 104 105 86 79 76 60 51 49 41 38 33 34 68 103 103 96 100 101 98 102 105 94 86 100 105 101 105 106 105 107 104 100 96 100 111 107 97 96 85 75
73 75 76 76 75 74 72 70 67 65 63 63 62 62 63 63 64 66 67 68 68 66 63 61 61 58 56 54 50 48 50 48 45 43 40 40 39 37 36 36 36 40 45 45 58 93 107 90 78 70 54 48 44 38 37 30 36 75 105 102 96 97 99 100 104 105 95 91 92 87 88 94 98 103 104 104 100 89 90 105 109 104 104 95 80
85 86 85 83 81 77 74 71 68 67 67 69 70 71 71 70 70 70 70 70 68 67 64 61 61 60 58 55 51 48 48 50 49 47 43 42 41 39 37 37 35 35 43 43 46 75 96 89 84 71 59 64 53 36 35 29 39 81 104 102 99 94 90 95 101 100 96 89 75 72 85 92 96 102 103 107 105 90 88 101 108 105 104 103 87
88 86 84 81 79 76 74 73 72 74 76 77 76 75 73 70 69 67 65 64 62 61 60 59 58 57 58 56 52 50 49 50 52 51 49 46 43 42 37 37 38 34 37 39 38 62 84 82 83 75 70 82 68 40 33 30 46 85 101 101 103 98 95 101 106 103 94 81 71 79 95 100 104 107 104 109 106 93 94 101 104 102 103 106 90
80 78 78 78 78 78 79 80 82 83 83 81 80 77 73 68 63 59 56 55 55 56 56 56 56 56 58 58 54 51 49 50 51 53 54 50 45 45 40 37 39 36 35 37 35 51 74 79 78 72 64 67 55 34 34 48 73 97 102 101 101 103 108 104 98 98 96 91 88 94 100 102 100 92 89 100 103 99 101 102 101 101 104 106 90
74 76 78 80 82 84 87 89 90 88 84 81 79 74 68 63 60 57 56 55 55 57 58 58 59 60 60 60 55 52 49 48 49 51 53 54 49 46 42 38 39 38 36 37 35 41 60 77 78 71 68 65 50 38 51 79 100 103 101 103 102 101 104 98 92 96 101 101 100 101 95 84 77 74 82 99 105 103 102 101 100 100 105 105 85
70 73 76 80 84 88 92 93 91 88 84 80 75 69 64 62 61 59 58 59 60 62 63 63 64 64 62 60 54 50 48 46 47 49 50 52 51 47 44 40 38 39 37 36 37 37 50 74 81 74 73 69 59 60 74 93 102 100 99 102 101 99 99 98 98 101 102 100 102 102 87 69 71 85 96 103 103 101 100 101 101 100 105 101 81
70 74 77 81 86 90 91 91 90 87 82 76 70 66 65 64 65 64 62 64 66 66 67 67 66 65 61 58 53 48 47 45 45 49 49 50 50 48 46 42 39 40 39 36 38 37 43 67 84 83 73 65 71 86 92 94 98 101 101 100 101 101 98 99 100 100 102 101 104 101 80 68 85 99 100 100 101 101 101 100 99 100 103 97 83
77 82 84 86 88 90 91 89 87 82 76 72 69 68 68 67 66 67 68 71 72 71 71 70 68 66 62 57 53 47 45 46 46 50 51 49 48 47 46 44 40 40 40 38 38 37 40 59 81 90 77 67 83 100 97 96 101 101 100 101 103 101 98 99 100 100 101 102 104 95 74 74 96 102 98 101 102 100 100 100 101 102 100 94 90
86 89 91 92 91 90 88 84 80 76 73 73 72 70 69 68 68 69 72 75 77 76 75 73 69 68 64 59 55 50 46 45 47 50 52 50 47 44 44 45 42 40 40 39 38 37 40 52 74 89 80 73 92 107 101 99 102 100 101 102 101 100 99 99 100 100 102 104 106 95 75 78 97 102 101 102 100 100 103 105 103 99 96 95 98
92 95 95 95 92 87 84 80 77 76 75 75 76 74 72 72 71 73 74 76 79 79 77 74 70 65 61 56 53 51 48 47 47 48 49 49 48 44 41 43 43 42 40 39 38 38 40 48 68 87 84 76 86 96 97 99 100 100 102 101 100 101 100 99 100 101 102 106 106 94 76 71 82 96 104 104 103 104 102 97 92 88 93 98 99
95 96 94 91 88 85 81 79 76 75 74 75 76 76 74 74 75 76 78 78 79 79 77 73 68 61 55 51 48 46 46 47 47 47 46 46 46 45 41 40 42 43 41 39 38 38 39 45 62 83 89 80 71 73 86 99 100 100 100 99 99 100 99 99 101 101 101 103 102 92 77 65 66 79 90 92 95 94 87 84 85 88 96 100 99
89 89 88 87 85 81 77 74 72 72 73 73 74 73 72 72 72 73 73 72 71 71 69 66 62 58 54 50 46 43 42 42 43 44 44 44 43 44 43 40 40 42 41 39 38 38 39 43 56 77 90 86 73 72 89 101 100 100 100 97 98 101 100 101 101 100 100 101 101 96 85 71 62 64 71 75 76 73 70 76 81 82 87 94 98
85 85 85 83 80 78 75 74 75 77 79 78 75 72 69 68 67 66 65 64 62 60 59 58 56 55 53 50 47 44 41 39 39 40 42 42 41 42 42 41 39 39 40 40 38 38 39 41 51 69 86 89 77 71 85 99 100 100 101 99 100 102 101 101 102 101 100 100 101 100 97 87 74 69 72 74 71 67 69 73 72 70 76 90 100
85 84 84 82 81 79 77 77 79 81 82 81 75 71 68 66 64 63 61 59 58 56 55 54 53 51 50 49 47 44 41 39 37 37 37 39 39 39 40 40 39 38 39 39 38 37 38 40 47 61 78 88 80 67 75 95 101 100 101 99 97 98 101 101 102 101 100 100 100 100 101 97 89 82 81 82 80 78 80 80 76 71 74 88 100
86 87 86 84 81 79 77 78 80 79 77 75 72 69 67 65 62 60 59 56 54 52 51 49 48 46 45 43 41 40 38 36 35 34 33 34 35 36 37 37 38 37 37 38 37 37 37 38 44 56 68 79 80 70 71 89 100 100 101 97 90 92 99 101 100 100 102 101 99 100 101 100 96 93 93 93 89 84 81 78 72 69 71 79 92
86 85 83 80 79 78 77 77 77 76 74 72 70 68 65 63 60 57 55 51 48 46 44 42 41 40 38 37 35 34 33 31 30 30 30 30 30 31 33 34 35 35 35 36 37 37 37 37 41 52 61 68 76 75 70 83 98 100 100 100 91 86 94 101 102 101 102 102 99 100 101 100 99 99 100 99 95 89 82 72 65 65 66 70 82
80 79 78 79 79 79 79 78 77 77 75 72 69 67 63 59 56 52 49 46 43 41 38 36 34 32 30 29 28 27 26 25 25 25 25 25 26 27 28 30 31 33 32 34 36 36 37 36 38 48 58 61 71 76 70 78 98 102 98 102 99 89 88 97 101 100 100 101 100 99 100 101 103 103 101 101 101 98 89 78 75 73 66 67 84
81 82 83 82 83 83 83 81 78 75 72 69 66 62 58 54 51 48 45 42 39 35 33 29 27 25 23 21 20 19 18 18 18 19 19 20 21 21 23 24 26 29 30 31 33 34 36 37 36 43 54 58 64 72 70 75 95 105 100 99 103 96 89 91 97 100 101 101 101 101 102 103 105 106 103 100 101 101 96 90 87 83 70 63 78
87 88 88 87 87 86 82 78 75 72 69 66 62 59 56 54 51 47 43 39 35 31 27 24 20 17 15 14 13 12 12 11 11 12 12 14 15 16 18 19 20 24 26 28 30 32 34 37 36 38 48 54 59 68 70 71 87 105 105 99 101 101 97 96 99 101 101 100 101 103 103 102 103 105 102 101 101 100 101 99 91 81 70 58 62
89 89 90 89 85 80 77 75 74 72 69 66 64 61 57 52 47 42 37 33 28 24 20 16 14 12 10 10 9 8 8 8 8 9 9 9 11 11 13 15 16 18 22 24 28 30 32 36 38 37 42 50 56 65 70 69 79 99 105 100 101 103 100 100 101 101 102 102 101 102 103 100 100 102 100 100 101 100 101 103 96 84 75 60 50
89 88 86 84 80 77 77 77 75 73 71 68 62 56 50 44 40 35 29 24 20 17 15 13 12 11 10 9 9 8 7 7 7 8 8 8 9 9 9 10 12 14 17 20 24 28 30 33 37 37 39 46 54 65 72 70 76 94 103 101 104 105 100 98 100 101 103 105 104 105 105 101 99 100 100 100 101 101 100 102 103 97 85 67 49
Wind_Speed
40 40 39 38 37 36 37 37 38 38 39 38 36 36 37 37 38 40 40 40 40 39 39 40 40 40 37 32 27 24 24 26 25 25 24 24 24 26 26 26 26 27 25 24 24 22 20 20 19 16 14 14 15 14 12 10 9 9 10 11 13 13 12 11 11 11 10 10 9 8 7 7 7 7 8 9 10 12 13 15 17 17 15 13 13
40 40 40 39 38 38 39 39 39 40 39 38 37 37 38 38 39 40 41 40 39 39 40 41 42 42 39 36 31 25 23 25 25 25 24 24 24 25 26 26 27 27 25 24 23 21 19 20 20 17 15 15 15 15 13 11 10 10 10 11 12 12 11 11 11 12 11 10 9 8 7 7 7 7 7 8 9 10 12 15 18 18 17 14 14
42 42 42 42 42 42 42 42 41 41 40 38 38 39 39 40 40 40 39 39 38 40 42 43 44 43 41 37 33 28 24 23 25 25 25 25 25 26 27 27 27 27 26 25 24 22 20 19 20 19 17 16 15 15 13 13 12 11 10 10 11 11 11 11 12 13 12 11 10 9 9 8 8 7 7 8 9 11 13 16 18 20 19 15 14
45 45 44 43 43 43 43 42 42 41 40 39 39 39 40 40 39 39 38 38 39 41 43 44 44 43 42 38 34 30 26 23 23 24 25 25 25 26 28 28 29 28 27 26 26 25 23 21 20 20 18 16 16 15 15 14 14 12 11 11 11 11 10 11 13 13 13 12 11 10 10 9 9 8 8 9 11 12 13 15 18 20 20 17 14
47 46 45 44 43 43 42 42 41 40 40 40 40 40 40 40 39 39 38 39 41 43 44 45 44 43 41 38 34 30 27 25 23 23 24 24 25 25 27 29 30 30 29 29 28 26 24 22 22 21 19 17 17 17 16 16 15 14 13 12 11 11 11 11 13 14 14 13 12 11 10 11 10 10 9 10 11 13 14 15 17 19 21 18 14
48 47 45 44 44 43 42 42 42 41 42 42 42 42 42 42 41 41 41 42 44 45 45 45 44 41 40 38 34 31 28 27 25 23 23 24 24 24 26 28 31 32 31 31 29 27 25 23 22 21 20 19 18 19 19 17 16 15 14 13 12 11 11 12 13 13 14 14 14 13 12 12 12 11 10 11 12 13 14 16 17 19 20 19 15
48 47 46 46 46 45 45 44 44 45 45 46 46 45 46 46 46 46 46 47 47 47 47 45 43 40 38 37 34 31 28 27 25 22 22 22 24 25 26 27 29 30 30 31 30 27 24 22 22 22 22 21 21 21 21 19 18 17 15 14 13 12 11 11 12 13 13 14 15 14 14 13 13 13 12 12 13 14 15 17 17 17 19 19 15
47 47 47 48 48 48 47 46 47 48 49 50 50 50 50 51 51 51 51 51 50 49 47 45 42 39 37 35 34 30 28 27 24 22 20 20 22 25 27 29 29 29 29 30 30 28 25 24 24 25 25 24 23 22 22 21 20 18 17 16 15 13 12 11 12 12 13 14 14 15 15 14 13 13 14 14 15 15 16 17 16 16 18 19 16
47 47 48 49 49 49 49 49 50 51 53 54 55 55 55 54 54 54 53 52 51 49 46 44 41 38 35 34 32 30 28 27 26 23 21 20 21 23 26 29 31 32 31 30 31 31 30 29 28 26 26 26 25 24 23 23 21 20 18 17 16 15 13 12 12 12 13 13 13 14 15 14 14 14 14 15 16 16 16 16 15 15 16 18 16
49 50 50 50 51 52 53 53 55 57 57 58 58 58 57 57 56 55 54 52 49 47 44 42 40 37 34 32 31 29 28 28 28 26 24 23 22 22 23 25 28 31 33 34 34 34 34 34 32 29 27 27 27 25 24 23 22 21 19 18 18 16 15 13 12 12 13 13 13 13 14 14 14 15 15 15 16 16 16 15 15 15 15 16 16
52 53 53 53 55 57 58 59 60 60 59 58 58 58 57 56 54 53 52 49 46 44 42 40 38 36 34 33 31 30 29 29 29 29 28 27 26 24 23 24 25 26 30 34 36 36 36 35 34 32 29 28 27 26 25 25 23 23 21 20 19 18 17 15 13 13 13 14 13 13 14 14 14 15 15 16 16 16 16 16 15 15 15 15 16
55 57 58 59 60 61 61 61 60 58 57 55 54 53 52 51 49 48 47 45 43 41 40 39 37 36 35 34 32 31 31 30 29 30 31 30 29 28 26 25 25 25 26 29 32 35 36 36 35 34 31 29 29 27 27 26 26 25 24 22 21 20 19 17 15 15 14 15 14 14 14 14 14 14 15 16 16 16 16 17 16 15 15 15 15
60 62 63 63 63 63 61 59 57 55 52 50 47 46 45 45 44 43 42 41 40 39 39 39 38 36 36 35 33 33 34 33 31 31 31 32 32 31 29 28 27 26 26 28 29 30 33 35 37 37 34 32 31 29 28 28 29 29 27 26 24 21 20 20 18 17 16 16 16 15 15 14 14 14 15 16 16 15 16 17 17 16 16 16 15
64 65 65 64 63 61 59 57 54 51 48 45 42 42 42 42 42 41 40 39 39 38 38 38 38 38 37 36 35 34 35 34 33 32 31 32 33 32 32 31 30 29 28 28 28 29 31 33 35 38 37 36 34 32 31 32 32 32 31 29 27 24 22 22 21 20 18 18 17 16 15 15 15 15 15 16 16 16 17 18 18 17 15 16 15
65 66 65 63 61 59 57 54 52 48 45 42 41 42 42 42 42 41 40 39 38 38 37 38 38 39 39 38 37 36 35 35 34 34 33 33 33 33 32 32 31 31 31 30 29 29 32 34 34 36 38 38 38 37 36 36 36 34 33 32 30 27 24 24 24 23 22 22 20 18 17 17 16 15 15 16 17 17 18 19 19 17 15 15 15
65 64 62 60 58 56 54 52 50 47 44 43 42 42 41 41 40 40 40 39 39 38 38 37 38 39 40 40 40 39 38 36 36 36 35 34 34 33 33 33 32 32 32 32 31 30 32 34 35 35 36 37 38 38 37 38 37 34 34 33 32 30 27 26 26 26 25 25 24 21 19 18 18 17 16 17 18 19 20 21 21 18 15 15 16
63 62 60 59 57 55 53 51 48 46 45 44 43 42 41 39 38 38 38 38 38 39 38 38 38 39 40 41 42 42 41 40 39 38 37 36 36 35 34 33 33 33 32 32 32 31 31 33 33 34 36 36 36 36 37 38 37 34 33 34 34 33 30 28 28 28 27 27 27 25 22 20 20 19 18 18 18 19 21 22 21 18 14 15 17
61 60 59 57 56 53 52 50 48 46 45 44 43 42 40 38 37 37 36 37 37 38 39 38 38 39 40 41 42 44 44 43 41 41 41 39 37 37 36 35 34 34 34 33 32 32 32 33 34 35 35 37 36 36 37 39 38 35 35 35 35 35 34 31 30 29 28 28 28 27 26 24 22 21 20 19 18 19 20 21 22 19 15 15 17
59 58 57 56 54 52 50 49 47 46 45 44 43 41 40 38 37 36 37 37 37 38 38 39 39 39 39 40 42 44 45 45 44 44 44 43 41 39 38 37 36 36 36 35 34 33 33 34 36 37 37 38 39 38 37 39 40 38 36 36 36 37 36 35 33 32 30 29 29 28 28 26 25 22 21 20 19 19 21 22 22 21 17 15 17
58 56 55 54 53 51 49 48 46 46 45 44 43 42 41 39 38 38 38 39 38 38 39 39 40 40 40 40 42 43 45 46 46 46 45 46 46 44 41 39 38 38 38 37 36 36 35 35 36 38 40 40 42 41 39 38 39 40 38 37 37 38 38 37 36 34 33 30 29 29 29 29 27 25 24 23 21 21 22 23 23 22 19 17 18
56 55 54 53 52 50 49 48 47 46 45 44 44 43 43 42 41 41 41 41 41 41 40 40 41 41 41 41 42 43 44 46 46 46 46 46 48 49 46 43 41 41 40 39 38 38 38 38 37 39 41 42 43 44 43 41 39 39 39 39 38 39 38 37 36 35 35 33 31 31 31 30 30 28 27 26 24 23 22 24 24 23 20 18 19
54 53 52 52 52 51 50 49 48 47 46 45 45 45 45 44 44 44 44 44 43 43 43 43 43 43 43 43 43 44 44 46 46 46 46 46 47 50 50 46 44 45 44 41 40 39 40 41 41 40 41 43 45 45 45 46 43 40 40 42 42 41 39 38 36 35 35 35 35 34 32 31 32 32 31 29 27 25 24 24 25 24 21 18 20
53 52 51 51 51 51 51 50 49 48 47 47 46 46 47 47 47 46 46 46 45 45 45 45 45 44 44 44 45 45 46 46 47 46 47 47 47 49 52 49 46 47 48 45 43 43 42 43 44 43 42 43 45 46 46 47 46 44 42 43 44 42 40 39 37 35 34 34 35 35 34 34 34 35 35 33 29 27 26 25 26 26 23 21 21
52 52 52 52 52 51 51 51 50 50 49 49 49 48 49 49 49 49 49 49 48 48 48 47 47 47 47 46 46 47 47 47 47 47 47 47 47 49 52 51 48 49 50 47 47 46 45 45 46 45 44 43 44 46 47 47 47 46 44 43 42 40 39 38 37 36 35 35 35 36 35 36 36 37 36 34 31 29 28 26 26 27 26 22 22
52 53 53 53 53 53 53 52 52 51 51 51 51 51 51 51 52 52 52 51 51 51 50 50 49 49 49 49 49 49 49 48 48 48 48 47 47 48 51 51 50 50 51 49 48 48 48 49 47 45 45 45 45 46 47 48 49 47 46 43 39 37 37 37 38 37 37 38 38 37 37 37 38 38 37 36 32 31 30 28 27 28 27 23 22
54 54 54 55 55 55 55 54 54 53 53 53 53 53 53 53 53 54 54 54 54 53 53 52 51 51 50 51 51 51 51 51 50 50 49 48 48 48 49 51 50 51 51 50 48 49 51 50 48 46 45 46 46 46 47 49 50 48 46 44 40 38 39 39 40 40 40 41 42 40 38 38 39 40 38 36 33 31 30 30 29 29 28 24 23
55 55 55 56 56 56 56 56 56 55 55 55 55 56 56 56 56 56 56 57 57 56 55 54 53 53 53 52 52 52 52 52 52 51 51 50 49 49 48 49 50 51 51 51 50 51 52 52 50 48 47 46 46 47 47 48 50 49 46 45 44 41 41 42 43 43 44 44 43 40 38 39 41 40 37 35 33 32 31 30 30 29 28 26 24
57 57 57 57 57 57 57 58 57 57 57 58 58 58 59 59 59 59 59 59 59 59 58 57 56 56 56 55 55 54 53 53 53 53 52 52 51 50 49 48 49 50 52 52 51 52 53 52 52 51 49 46 46 47 47 48 50 51 49 47 47 45 44 44 45 46 45 43 41 39 38 39 40 38 36 34 33 32 31 31 31 30 30 27 24
59 59 59 59 59 59 59 59 59 60 60 61 61 61 61 62 62 62 62 61 61 60 60 60 59 58 58 57 57 57 56 55 54 54 54 53 52 51 50 49 47 47 50 52 52 53 54 52 51 52 50 47 46 47 47 48 50 53 52 50 49 48 46 45 45 45 43 40 38 38 38 38 38 36 35 34 33 32 32 32 32 31 31 29 26
60 61 61 61 61 62 62 62 62 62 63 63 64 64 64 64 64 64 64 63 63 62 62 62 62 61 60 59 57 57 57 56 55 55 54 54 53 52 51 50 47 45 45 48 50 53 54 52 52 51 49 47 46 46 47 48 50 53 54 52 50 48 46 45 45 44 42 39 37 37 37 38 37 37 36 35 33 33 34 34 33 32 32 31 28
62 62 63 64 64 64 64 64 64 65 65 66 66 66 66 66 66 66 66 66 66 65 65 64 64 64 62 60 58 57 56 56 55 55 55 55 54 53 51 50 48 45 43 42 45 52 53 51 51 50 46 45 45 45 46 47 49 53 55 53 51 49 47 46 46 45 43 41 39 37 37 38 38 38 37 36 35 35 36 37 35 33 33 32 29
64 65 65 65 66 66 66 66 67 67 67 67 68 68 68 68 68 69 68 68 68 68 68 67 66 65 64 62 60 58 57 56 56 55 55 55 54 54 52 51 49 47 44 42 43 49 50 48 48 46 42 43 45 44 44 45 48 54 56 55 52 50 49 48 47 47 44 43 42 40 39 40 40 39 39 38 37 38 39 40 38 35 34 34 31
66 66 66 67 67 68 68 68 68 68 68 69 70 70 71 71 70 70 70 69 69 69 68 68 67 65 64 63 61 59 58 56 57 57 56 56 55 54 53 51 50 48 45 44 43 46 48 47 46 43 40 43 44 41 40 43 48 54 57 56 53 50 50 49 48 47 45 44 44 42 42 42 42 41 40 41 41 41 42 42 39 36 35 35 33
67 67 67 68 68 69 69 69 69 70 70 71 71 72 72 72 72 71 70 69 68 68 67 66 66 64 63 63 61 60 59 57 57 57 57 57 56 55 54 52 51 49 47 45 43 44 47 47 46 43 42 42 41 37 38 42 47 53 56 56 54 52 50 49 47 47 47 47 47 46 44 42 41 42 43 44 44 44 44 42 39 36 36 36 34
67 68 68 69 69 70 70 70 71 71 71 71 72 72 72 72 72 71 70 69 68 67 66 65 64 64 63 63 62 61 60 58 58 57 58 58 56 56 55 53 51 50 48 46 44 45 46 47 46 44 41 39 36 36 38 43 48 52 54 55 55 53 51 48 47 48 50 52 51 47 44 42 42 44 45 45 46 45 45 43 40 37 37 37 36
68 68 69 69 70 70 70 70 71 71 71 72 72 72 72 72 72 71 70 68 66 65 65 64 64 64 64 63 62 61 60 59 58 58 58 58 57 56 56 54 52 51 50 47 45 44 45 46 45 44 40 37 36 38 41 45 50 52 53 54 53 52 51 49 50 51 52 52 49 45 43 43 43 44 44 44 44 45 45 44 42 40 40 40 38
67 68 69 69 69 69 70 70 70 71 72 72 73 73 73 72 72 71 68 66 65 64 64 64 64 64 64 64 63 62 60 59 59 59 58 57 57 56 56 55 53 52 51 49 46 45 45 45 45 44 41 37 37 41 43 45 50 52 53 54 53 53 53 52 53 53 51 48 46 43 42 42 43 43 43 43 44 46 46 45 44 43 43 43 39
66 67 67 68 68 68 69 70 71 72 73 73 74 74 74 72 70 68 66 65 64 64 64 64 65 65 65 65 64 63 61 60 59 59 59 58 57 56 55 55 54 53 52 50 48 46 45 46 46 44 41 39 39 43 44 46 49 52 54 55 55 55 54 51 50 50 48 46 44 43 42 42 43 44 44 45 47 48 46 44 43 43 43 41 38
65 66 67 68 69 69 70 71 72 73 73 74 75 74 73 71 68 66 65 64 64 64 65 65 65 66 66 66 65 64 62 61 60 59 59 59 58 57 55 55 55 54 53 52 49 48 47 46 46 45 43 41 43 47 48 48 50 53 55 55 56 57 56 52 49 49 49 48 46 44 43 44 45 45 46 47 48 48 45 42 40 40 39 37 35
67 68 68 69 70 71 71 72 73 74 74 74 73 72 70 68 66 65 64 64 65 65 66 67 67 67 67 67 66 65 64 62 61 60 60 60 60 59 56 55 56 55 54 53 51 49 48 48 48 47 46 45 48 53 54 54 54 55 55 55 55 56 55 53 51 50 49 49 48 46 45 45 45 47 47 47 47 47 45 42 40 39 38 36 34
68 69 70 70 71 72 73 73 73 73 72 70 68 67 67 66 66 65 65 65 66 67 68 69 70 70 69 69 68 66 64 63 62 62 61 61 61 60 59 56 56 56 56 54 53 51 50 49 50 49 48 48 51 55 57 56 55 56 56 56 55 55 54 52 50 48 47 47 48 47 47 46 45 46 47 46 46 45 42 40 40 40 38 36 34
69 69 70 70 71 71 71 71 69 68 67 66 66 66 66 67 67 67 67 68 68 69 70 71 72 72 72 72 70 68 66 64 63 63 63 62 62 61 61 59 57 57 57 56 54 53 51 51 52 52 50 50 52 55 57 57 56 56 57 56 55 55 56 54 50 48 46 47 48 48 48 47 45 44 43 44 44 41 39 40 40 41 40 38 35
69 69 69 69 68 68 68 67 67 67 68 67 67 68 68 68 69 69 70 71 71 72 72 73 73 74 74 74 74 72 70 67 65 64 64 64 64 63 62 62 60 58 58 57 56 54 53 52 53 54 53 53 54 56 58 60 59 57 58 57 56 56 56 55 53 50 47 48 49 49 49 49 47 44 43 44 42 40 40 41 41 41 41 40 37
67 67 66 66 66 67 68 68 69 69 69 69 69 69 70 70 70 71 72 73 73 74 75 75 75 76 76 76 76 76 74 72 70 68 66 66 65 65 64 63 62 61 59 59 58 56 55 54 55 56 56 56 56 56 58 62 62 61 62 61 59 58 57 56 55 53 51 52 53 54 54 53 51 47 45 44 43 41 41 41 40 41 42 42 41
64 64 64 66 68 69 69 69 69 69 69 70 70 71 71 72 73 73 74 75 75 76 77 77 78 78 78 78 78 78 78 76 74 72 70 69 68 67 66 65 64 63 62 60 59 59 57 56 56 58 59 58 58 57 59 63 64 64 65 64 62 60 58 57 56 55 55 56 56 55 56 57 54 51 48 46 44 43 43 42 40 39 40 43 45
64 65 66 68 69 68 68 68 68 69 70 71 72 73 74 75 76 76 77 78 78 78 79 79 79 80 80 80 80 80 79 79 77 75 74 72 71 70 68 67 66 65 64 62 61 60 59 58 57 59 61 61 59 59 61 64 66 65 65 65 63 62 60 59 59 59 59 58 56 54 54 56 55 52 49 48 46 45 44 44 41 39 40 43 46
66 67 67 68 68 68 68 68 69 70 72 73 74 75 77 78 78 79 80 80 81 80 80 80 80 80 80 79 79 79 79 78 77 77 75 74 74 72 71 70 68 68 66 64 63 62 61 60 59 60 63 63 62 61 61 64 67 68 66 65 64 63 63 63 63 62 61 60 58 55 54 55 56 54 51 50 49 47 47 46 44 42 42 42 44
67 68 68 68 68 68 69 70 71 72 74 75 76 77 78 79 80 81 81 81 82 82 81 81 80 79 78 77 76 76 75 75 74 73 73 73 74 73 73 72 71 70 69 67 65 64 63 62 61 62 64 65 64 63 62 64 68 71 69 67 65 64 63 64 64 63 63 63 62 59 57 57 58 56 54 52 51 50 49 48 46 45 44 44 44
68 68 68 68 69 69 70 71 73 74 75 77 78 79 80 80 81 82 82 82 83 82 81 80 79 77 75 73 72 70 70 69 68 68 68 69 70 71 72 72 71 71 70 69 67 65 65 64 64 63 65 67 66 65 64 64 68 73 73 70 67 65 64 64 63 63 64 64 63 61 60 59 59 59 57 54 52 52 51 50 50 50 48 47 45
67 67 68 69 69 70 72 73 74 76 77 78 79 80 81 81 82 82 82 82 82 81 80 78 76 74 72 70 68 66 64 63 62 62 62 63 65 68 69 70 70 70 70 70 70 68 66 66 66 66 66 67 67 67 66 65 68 73 74 72 70 69 67 66 65 64 64 65 64 62 60 59 61 61 59 56 55 54 54 52 52 53 53 51 49
67 68 68 69 70 72 73 75 76 77 78 79 80 81 81 81 82 81 81 80 79 78 76 75 73 71 69 68 66 63 60 57 56 56 56 57 60 63 65 66 67 68 69 70 71 70 68 68 68 68 67 68 68 69 68 67 68 71 74 74 72 72 70 68 67 67 66 64 64 64 63 62 63 62 60 59 57 56 57 56 54 54 55 56 53
Wind_Direction
298 299 301 304 305 305 305 305 306 307 308 307 305 307 310 312 314 314 315 316 318 318 318 321 324 329 333 329 315 301 293 291 289 286 283 280 276 275 276 277 277 277 274 272 274 274 271 270 272 277 281 282 283 281 279 283 293 302 304 300 299 302 304 300 299 304 309 312 313 308 299 295 296 301 308 318 324 326 332 336 335 328 320 315 314
297 299 300 302 303 303 303 303 304 305 306 304 303 305 307 309 311 312 313 314 316 317 318 320 323 326 329 329 320 306 293 287 285 284 282 279 275 272 271 271 272 273 270 268 271 274 273 270 268 270 273 275 277 276 275 281 292 298 298 296 295 298 300 298 298 302 305 308 310 307 302 300 297 298 304 313 317 323 335 342 341 336 326 314 311
296 298 298 299 299 299 300 300 302 303 302 302 302 303 304 306 309 310 311 312 314 315 317 319 321 323 325 325 320 309 298 289 283 282 281 279 275 270 267 266 266 268 269 270 271 272 274 273 268 268 269 270 272 270 272 281 289 294 292 290 290 293 296 295 295 298 300 303 306 307 305 304 300 294 295 303 306 314 329 338 340 340 334 319 309
295 297 298 299 299 298 299 299 300 301 301 301 301 301 302 304 306 307 308 310 312 314 315 317 318 320 322 322 317 308 301 295 288 284 281 279 275 270 266 264 263 263 266 270 272 271 271 273 270 267 267 268 268 264 268 278 285 290 288 284 284 288 292 294 294 295 296 296 301 306 305 303 300 292 289 295 299 304 316 327 334 338 337 326 311
295 296 298 298 299 299 299 299 299 300 300 300 301 300 300 301 303 304 305 307 310 311 313 314 315 317 317 317 313 305 300 299 296 290 283 279 276 272 268 264 263 263 264 268 270 270 269 270 269 265 264 265 264 263 265 273 280 285 285 281 279 282 289 295 295 294 293 292 294 300 303 303 297 290 286 290 294 298 305 316 326 333 336 331 316
294 295 297 298 298 298 299 299 299 299 299 300 300 300 299 299 300 300 302 304 306 308 309 311 311 312 312 312 309 303 298 299 299 293 284 278 276 274 270 266 264 263 264 266 268 269 269 266 264 264 263 262 261 261 264 269 274 279 280 277 274 277 285 293 297 295 293 291 290 293 298 302 298 292 285 285 288 293 300 309 319 329 334 332 321
293 294 295 296 296 297 297 298 298 298 299 298 298 297 297 297 297 298 299 301 303 304 306 307 307 307 307 306 304 300 297 297 298 294 286 280 277 274 271 269 267 265 264 265 266 266 265 261 262 265 266 263 260 260 262 265 269 273 274 272 270 273 281 291 296 295 292 291 291 290 293 299 303 299 292 288 288 291 297 305 315 325 331 331 323
292 293 295 296 296 296 296 296 297 298 298 298 297 296 296 295 295 296 297 299 300 301 302 303 302 302 301 300 299 296 294 294 294 293 290 283 277 274 270 268 267 268 266 264 264 263 259 258 261 266 267 264 260 260 262 264 266 268 269 267 265 268 275 285 295 296 293 292 293 292 293 297 304 304 299 295 293 293 296 302 312 323 330 331 324
290 293 295 295 296 297 296 296 297 298 298 298 297 296 296 295 295 295 296 296 298 299 299 299 299 297 295 294 293 292 290 290 289 289 288 284 278 274 270 267 265 266 266 265 263 261 259 259 262 265 266 263 260 259 260 263 265 265 265 263 261 263 269 279 291 295 294 295 296 295 294 295 300 303 299 296 296 295 296 300 309 321 329 332 327
288 292 294 294 295 297 296 296 297 298 298 297 297 296 296 295 295 295 295 295 296 297 296 296 295 293 290 288 287 288 286 285 285 286 285 282 279 277 275 273 269 266 264 263 262 262 261 262 263 262 261 260 259 258 258 260 262 263 263 260 258 260 263 272 284 290 293 296 298 298 295 293 295 298 296 293 294 295 294 296 305 318 326 332 331
288 291 293 294 295 297 297 296 296 297 297 297 297 296 296 295 295 294 294 294 294 294 293 292 290 288 285 283 281 281 281 282 283 283 283 281 279 279 280 279 277 272 266 261 260 261 262 262 261 259 257 254 254 255 256 257 260 262 263 260 257 259 262 268 278 283 287 292 297 298 295 291 291 294 294 290 290 291 291 292 300 313 321 328 332
289 292 293 294 295 296 297 296 296 297 297 297 297 296 296 296 295 294 293 292 292 291 290 288 286 283 280 279 277 275 276 279 281 281 281 280 280 280 280 280 279 278 274 268 263 261 260 261 260 258 256 251 249 252 255 257 259 261 263 261 259 259 261 265 273 278 281 286 292 296 295 292 290 291 292 289 289 289 289 290 294 306 315 323 330
291 293 294 295 296 296 297 297 297 298 298 298 297 297 297 297 296 295 293 291 290 288 287 285 283 280 276 275 274 272 273 276 278 279 278 279 279 279 279 279 278 278 277 274 271 266 262 259 258 258 256 253 250 250 253 256 259 260 261 262 260 260 261 264 269 274 278 281 286 292 294 293 291 290 290 288 288 290 290 291 291 299 310 316 324
291 293 294 295 296 296 297 297 298 299 299 298 297 297 298 297 296 295 293 291 288 286 284 282 281 278 275 273 271 270 271 273 276 277 277 277 277 277 277 277 277 277 274 272 271 269 266 263 260 259 258 254 251 251 254 257 257 257 258 259 259 260 263 266 269 272 277 280 283 287 290 291 290 288 289 288 286 287 291 294 290 294 305 308 315
292 293 294 295 296 296 297 298 299 299 298 297 298 299 299 298 296 294 293 291 288 285 282 279 278 277 275 274 272 270 269 270 273 276 277 276 274 274 275 275 275 275 273 271 269 264 262 264 263 260 259 256 253 252 254 255 254 253 255 257 256 256 260 266 270 273 276 280 282 283 283 287 288 286 289 290 286 284 288 292 290 291 299 301 304
293 293 294 295 296 297 298 299 299 298 297 298 299 300 299 297 295 294 293 291 288 285 282 278 276 275 274 273 272 271 268 267 269 272 275 276 275 273 272 273 273 273 272 271 269 264 258 260 263 263 261 260 256 253 252 252 252 251 252 255 254 252 255 262 269 272 274 277 280 281 280 284 287 285 287 290 287 284 286 289 289 289 294 295 295
293 294 295 295 296 297 297 298 297 296 296 298 299 299 297 295 294 293 293 291 289 287 284 280 276 274 272 272 272 272 271 269 268 269 271 273 274 274 272 272 271 272 272 270 269 266 260 257 259 261 262 262 259 253 249 248 248 248 249 251 252 251 251 254 262 267 270 273 277 280 280 281 285 285 285 288 286 283 283 285 287 287 291 294 294
293 294 295 296 296 297 297 296 296 295 295 296 297 296 294 293 292 292 292 291 290 289 286 283 279 275 272 270 270 271 272 272 271 270 270 270 269 271 271 271 272 272 272 271 269 267 264 259 257 258 259 261 260 255 249 247 247 247 247 248 250 251 250 249 253 258 263 268 274 279 280 279 284 284 283 287 284 280 283 284 285 286 288 293 293
293 294 294 295 295 295 295 295 294 293 293 294 294 293 291 290 290 291 291 290 290 289 288 286 283 279 275 271 268 268 270 271 271 272 273 272 269 267 267 268 269 269 270 270 270 269 267 263 259 257 256 257 258 257 253 249 248 247 246 248 250 251 251 250 251 254 258 265 272 276 277 277 281 281 281 285 283 279 284 286 285 285 286 290 293
293 293 293 293 294 294 293 293 292 292 292 292 292 290 288 287 288 289 289 289 289 288 288 287 285 283 280 275 271 267 266 267 268 269 271 273 273 270 267 265 265 265 266 267 268 269 268 265 261 258 256 254 255 257 256 253 249 247 246 248 250 251 252 252 253 254 254 259 266 270 272 275 278 279 279 280 281 280 283 284 284 283 285 288 292
292 292 292 292 292 292 291 291 291 291 291 291 289 288 287 286 286 287 288 289 288 287 287 286 285 284 282 279 275 271 268 265 264 264 265 267 271 272 271 269 267 266 264 264 265 266 267 266 263 260 258 256 254 254 255 254 252 249 247 247 247 248 250 252 253 254 253 253 256 261 267 273 275 278 277 276 278 280 281 282 282 281 282 283 287
290 291 291 290 290 290 290 290 291 291 290 289 288 287 286 286 287 287 288 288 288 287 285 285 284 283 282 280 278 275 272 269 265 263 261 261 263 267 269 269 269 269 267 265 264 263 264 265 265 262 259 257 255 253 252 252 252 250 248 247 247 246 249 252 253 254 254 254 254 255 260 267 271 276 278 275 275 279 279 280 280 280 279 276 281
288 288 288 288 288 289 290 290 290 290 289 288 287 287 286 287 287 288 288 288 288 287 286 284 283 282 281 280 278 276 274 272 269 266 263 260 258 261 264 265 265 266 267 267 266 264 263 263 263 263 262 259 257 254 251 250 249 248 247 247 248 248 249 251 252 252 254 257 259 257 257 262 267 273 277 275 273 276 278 277 277 279 278 271 274
286 286 286 286 287 287 288 289 289 289 288 288 287 286 286 287 288 289 289 288 288 288 287 286 284 283 282 280 278 276 275 273 271 269 267 263 259 258 260 261 261 261 263 263 264 264 263 261 260 261 262 261 259 255 252 248 246 247 247 248 248 248 248 249 251 252 254 258 261 260 259 260 265 270 273 272 271 273 275 275 275 277 277 271 272
285 285 285 285 285 286 286 287 287 287 287 287 287 287 287 288 289 289 289 289 289 289 288 287 286 285 284 282 280 277 275 274 272 271 269 267 264 260 259 259 259 260 261 261 262 263 262 261 261 260 260 261 260 258 254 248 244 245 246 247 247 245 245 248 250 252 255 258 260 261 260 261 263 267 269 269 268 270 272 272 273 274 276 274 275
284 284 285 285 286 286 286 287 286 287 287 287 288 288 289 289 289 290 290 289 289 289 289 288 287 286 285 284 282 279 276 274 273 271 270 268 267 264 261 259 259 259 260 260 261 263 263 262 262 261 260 260 260 259 257 250 244 242 243 244 243 241 242 246 249 251 253 255 257 259 259 259 261 264 265 265 266 268 268 269 270 271 273 273 275
284 284 284 285 285 286 286 287 287 287 288 289 289 289 290 290 289 289 289 289 289 289 288 288 287 286 285 284 283 280 278 275 272 270 269 268 267 266 263 261 259 259 259 260 260 261 263 263 263 262 261 260 260 259 258 253 245 240 239 241 240 239 240 243 245 248 250 251 254 256 256 257 259 260 261 261 263 265 266 267 268 268 270 272 276
284 284 284 284 285 285 285 286 287 287 288 288 289 289 290 290 290 290 290 290 290 289 289 288 287 286 286 285 284 281 279 276 273 270 269 268 267 266 265 263 261 259 259 259 260 260 261 262 262 263 262 261 261 260 258 254 246 239 236 238 238 237 239 241 242 245 248 249 251 252 253 254 256 257 257 258 261 262 263 266 267 265 267 271 276
284 284 284 285 285 285 286 286 287 288 288 289 289 290 290 290 291 291 290 290 290 289 289 288 287 286 286 285 284 282 280 278 275 272 269 268 266 266 265 264 262 260 259 258 259 260 260 260 261 262 263 263 262 260 257 253 246 238 234 235 236 237 239 241 243 245 246 249 251 251 251 252 255 256 256 256 258 260 262 265 265 263 265 270 274
285 286 286 286 287 287 288 288 289 289 290 290 291 291 291 291 291 291 290 290 289 289 288 287 287 286 286 285 284 282 280 279 276 273 270 268 266 265 264 263 262 261 260 258 257 259 259 259 260 261 263 264 263 261 257 251 243 236 232 233 234 236 238 240 243 244 245 248 251 251 252 254 256 257 256 255 256 259 262 264 263 261 263 267 271
287 287 288 288 289 290 290 290 291 291 291 292 292 292 292 291 291 291 290 290 289 289 288 288 287 287 287 286 285 283 281 279 277 275 272 269 267 265 263 263 262 260 260 258 255 256 258 258 260 261 263 265 265 262 257 249 239 231 230 231 232 233 235 237 240 243 245 247 248 249 253 256 257 257 257 255 255 259 263 263 262 260 261 265 268
287 288 289 289 290 291 291 291 292 292 292 292 292 291 291 291 290 290 289 289 288 288 288 287 287 287 287 286 285 283 281 279 278 276 273 270 267 265 263 262 261 259 258 257 254 254 257 257 258 262 265 267 266 263 256 245 233 226 226 229 231 232 233 235 237 241 244 245 246 249 253 256 256 256 256 255 256 259 262 262 261 258 259 263 264
287 288 288 289 290 290 291 291 291 292 292 292 291 291 291 290 290 289 289 288 287 287 286 286 285 285 285 284 284 282 281 279 277 276 274 272 268 265 263 261 261 259 257 255 253 253 255 255 255 258 260 264 265 260 249 239 229 224 225 228 231 232 233 234 237 241 243 243 246 250 254 255 253 254 255 256 257 259 260 259 258 256 258 261 261
287 287 288 288 289 289 290 290 291 291 291 291 291 291 291 291 290 290 289 288 287 286 285 284 283 283 282 281 281 280 279 277 276 274 273 272 269 266 263 261 260 259 257 255 252 251 252 253 254 254 254 258 261 253 239 230 226 224 225 228 231 232 233 236 238 240 242 244 248 252 253 251 250 253 256 256 257 257 257 256 255 255 258 260 259
287 287 287 288 288 289 289 290 290 290 290 290 291 291 291 291 290 290 289 288 287 285 284 282 281 280 279 279 279 278 277 275 275 273 271 270 268 266 263 261 259 258 257 255 252 250 249 250 252 253 254 256 252 240 229 223 223 225 226 229 231 231 233 236 238 240 243 247 250 252 250 249 252 256 256 255 256 256 255 254 254 254 256 258 257
287 287 288 288 288 289 289 289 290 290 290 291 291 291 291 291 290 290 289 288 285 284 282 281 279 278 278 277 277 276 275 274 273 272 270 268 267 265 263 260 258 256 256 254 252 249 247 247 249 250 251 252 243 230 223 221 223 225 226 228 230 231 233 234 237 241 245 246 246 248 251 253 254 254 252 254 257 258 257 255 253 252 255 257 256
288 288 289 289 289 290 290 290 290 290 291 291 291 291 291 290 290 290 289 287 284 282 281 279 278 277 277 277 276 276 275 274 273 271 269 267 265 264 262 260 257 255 254 253 252 249 245 243 245 246 247 247 237 225 221 223 225 227 227 228 229 230 231 233 236 239 240 241 242 246 252 254 252 248 247 251 256 257 258 257 255 254 256 257 255
289 290 290 290 290 290 290 290 290 291 291 290 290 290 290 290 289 288 287 286 284 282 281 279 278 278 277 277 276 276 275 273 272 271 269 267 264 263 261 259 257 254 253 251 250 249 244 240 240 242 244 241 230 221 221 224 227 229 228 229 230 230 231 232 235 235 235 238 243 247 250 250 249 246 244 245 250 254 257 258 257 255 255 254 253
290 290 290 291 291 291 291 291 291 290 290 290 290 290 290 289 288 287 286 285 284 282 281 280 279 278 277 277 276 275 274 273 271 270 268 266 265 262 260 258 256 254 252 250 248 247 243 239 237 238 239 235 223 218 221 224 226 228 229 229 229 231 231 233 235 236 236 241 245 245 246 246 246 245 243 243 246 250 255 256 253 250 251 251 253
290 290 290 291 291 291 291 291 290 290 290 290 290 290 290 289 288 287 286 285 284 283 281 280 279 278 277 276 276 275 274 273 271 269 267 265 264 263 260 257 255 253 251 249 247 245 242 238 235 235 236 232 223 219 221 222 225 227 228 228 229 230 231 233 235 237 238 241 243 242 241 242 243 242 242 243 245 248 251 250 247 246 248 250 253
290 290 290 291 291 291 291 291 291 291 291 291 290 290 290 289 288 287 286 284 283 282 282 281 280 280 279 278 277 275 274 273 271 269 267 265 263 263 261 257 254 252 251 248 245 243 241 238 234 233 233 233 230 226 222 222 226 228 228 229 229 230 230 231 232 234 236 239 240 238 237 239 241 240 241 244 246 247 249 248 246 246 247 248 251
290 290 290 291 291 291 291 291 292 292 291 291 290 290 289 288 287 286 285 284 283 282 282 282 281 281 281 280 279 277 275 273 271 269 268 266 264 262 261 258 255 252 250 247 244 242 240 237 234 232 231 231 231 228 222 222 226 229 230 230 230 229 229 228 228 229 233 236 237 238 238 238 238 238 240 243 246 247 248 248 247 246 246 246 247
290 290 290 290 291 292 292 292 292 292 291 290 290 289 288 287 287 286 285 284 284 283 282 282 282 281 281 281 280 279 278 276 273 271 268 266 265 262 261 259 256 252 249 247 244 241 238 236 233 232 230 230 230 228 223 221 224 227 229 230 229 229 229 227 226 226 229 232 235 238 240 239 238 237 237 241 246 247 248 248 247 246 246 245 244
290 290 291 291 292 293 292 292 292 291 291 290 289 289 289 288 287 286 285 285 284 284 284 283 282 282 281 281 280 280 279 277 275 273 270 267 265 263 261 259 256 253 250 247 244 241 238 235 233 231 230 229 230 230 225 222 223 226 228 228 227 227 227 227 227 227 227 228 231 234 238 240 240 239 239 242 246 247 247 247 247 246 246 244 243
291 291 291 292 293 293 292 292 292 291 291 291 290 290 290 289 288 288 287 286 286 285 285 284 284 283 282 281 280 280 279 277 276 274 271 269 266 263 260 258 256 254 250 247 244 241 237 234 232 231 230 229 229 229 226 222 222 224 228 229 228 226 226 227 228 228 226 226 228 231 234 237 240 241 242 244 245 245 245 246 247 248 248 246 243
291 292 292 293 293 293 292 292 292 292 292 292 292 292 291 290 290 289 289 288 288 287 286 286 285 284 283 282 281 279 278 277 276 274 271 269 266 263 260 258 255 253 250 247 244 241 238 234 231 230 230 229 228 228 227 223 221 223 226 229 229 227 227 227 228 228 226 225 227 230 233 236 239 241 243 245 245 245 245 246 249 252 254 252 249
292 293 293 294 294 293 293 294 294 294 294 293 293 292 292 292 291 291 291 290 290 289 288 287 286 285 284 283 281 280 278 277 275 273 271 268 266 263 260 257 254 252 250 247 243 241 238 235 231 229 229 229 228 227 227 224 222 222 224 227 228 228 227 227 228 228 227 226 228 230 233 237 239 241 243 245 246 246 246 247 250 253 256 257 254
295 295 295 295 295 295 294 294 294 294 294 293 293 293 293 293 294 294 294 293 293 292 291 290 289 288 286 285 283 281 279 277 275 273 271 268 265 263 260 256 253 251 249 246 243 240 238 235 232 229 228 228 227 227 226 224 222 222 224 226 227 227 227 227 227 228 228 228 230 231 233 236 240 241 243 245 247 247 247 249 251 253 255 256 255
295 295 295 295 295 295 295 295 295 295 295 295 295 295 296 296 296 296 296 296 295 295 294 293 292 290 289 287 285 283 281 279 276 273 270 267 265 262 259 256 252 249 247 246 243 239 236 235 232 229 227 227 227 226 225 224 222 222 224 226 227 228 228 228 227 228 228 229 231 234 235 237 239 241 242 244 246 247 248 249 252 253 254 254 253
295 294 294 295 295 295 295 296 296 296 296 297 297 297 298 298 298 298 298 297 297 296 296 295 294 293 292 291 288 286 283 280 278 275 271 267 264 261 258 255 252 248 245 243 242 238 235 233 232 230 227 226 226 225 225 224 223 222 224 226 228 229 229 228 228 229 230 231 232 233 235 237 238 239 241 243 245 246 247 249 252 255 256 256 253
294 295 295 295 296 296 297 297 297 297 297 298 298 299 299 299 299 299 299 299 298 298 297 297 296 296 295 293 291 289 286 282 279 275 271 267 263 260 257 254 251 247 244 241 239 238 234 231 230 229 227 225 225 224 224 223 223 222 222 225 228 229 230 230 230 230 232 233 233 233 233 235 236 237 238 241 243 246 248 250 253 256 257 257 255